Location: Newark
(50.8547°N, 2.7256°E)
Time: 01:01:09
(UTC+00:00)

Envisat - Pass Details

Date: 24 January 2020
Orbit: 764 x 766 km, 98.1° (Epoch: 20 February)

Event Time Altitude Azimuth Distance (km) Brightness Sun altitude
Rises 06:46:15 0° 14° (NNE) 3,246 6.2 -8.0°
Reaches altitude 10° 06:48:34 10° 14° (NNE) 2,315 5.4 -7.7°
Maximum altitude 06:53:41 89° 286° (WNW) 773 3.0 -6.9°
Drops below altitude 10° 06:58:45 10° 197° (SSW) 2,297 5.6 -6.2°
Sets 07:01:03 0° 197° (SSW) 3,219 6.3 -5.9°
